Date,TemperatureHighF,TemperatureAvgF,TemperatureLowF,DewpointHighF,DewpointAvgF,DewpointLowF,HumidityHigh,HumidityAvg,HumidityLow,PressureMaxIn,PressureMinIn,WindSpeedMaxMPH,WindSpeedAvgMPH,GustSpeedMaxMPH,PrecipitationSumIn
2013-2-1,2.5,-4.1,-11.6,0.3,-10.9,-17.3,92,72,62,30.34,30.16,15,4,15,0.00
2013-2-2,9.6,5.2,-0.1,3.8,-1.0,-4.8,92,75,61,30.23,30.01,9,1,9,0.01
2013-2-3,14.9,10.8,6.4,7.0,4.1,2.0,86,75,59,30.06,29.98,18,4,18,0.01
2013-2-4,14.8,10.0,1.0,7.3,0.8,-4.8,83,66,49,30.08,29.88,12,2,12,0.00
2013-2-5,25.7,17.6,8.0,21.2,12.9,2.7,90,82,66,30.10,29.68,17,3,17,0.03
2013-2-6,25.3,14.1,-2.1,22.0,10.7,-6.3,89,86,81,30.18,30.04,8,1,8,0.05
2013-2-7,26.5,25.5,24.2,23.5,22.4,20.0,91,88,84,30.25,30.05,10,2,10,0.00
2013-2-8,28.7,19.7,8.9,20.0,10.9,4.5,89,70,43,30.41,30.25,6,1,7,0.00
2013-2-9,28.0,23.3,13.6,24.6,19.4,7.4,89,85,73,30.33,30.00,16,3,17,0.00
2013-2-10,36.5,31.3,26.2,33.6,28.5,23.0,90,89,87,30.01,29.23,14,2,14,0.24
2013-2-11,35.0,28.7,22.4,32.1,24.9,17.6,91,85,79,29.98,29.23,24,9,24,0.00
2013-2-12,33.7,24.3,15.3,24.9,19.3,12.1,92,81,69,30.02,29.78,16,5,16,0.35
2013-2-13,34.1,27.9,21.3,29.4,23.8,18.6,90,85,76,29.79,29.57,11,2,11,0.00
2013-2-14,33.4,27.2,14.1,29.5,20.2,4.5,91,75,63,30.10,29.57,19,4,19,0.18
2013-2-15,17.1,12.5,8.7,6.4,3.9,1.7,77,68,56,30.26,30.10,17,4,17,0.00
2013-2-16,16.3,8.9,0.5,5.8,1.8,-3.9,86,73,57,30.24,30.18,11,2,11,0.00
2013-2-17,29.6,13.8,-5.7,16.2,5.7,-10.4,86,71,53,30.20,29.80,13,2,13,0.00
2013-2-18,35.1,27.1,17.2,30.8,22.4,13.5,90,82,75,29.80,29.50,25,5,25,0.00
2013-2-19,17.2,8.0,3.1,13.1,-0.2,-4.9,84,69,56,30.31,29.63,25,9,25,0.00
2013-2-20,24.9,11.2,-0.3,11.4,3.7,-5.2,89,72,54,30.46,30.31,13,2,13,0.00
2013-2-21,24.5,13.2,-3.0,14.6,6.4,-7.1,87,74,60,30.53,30.15,5,0,5,0.00
2013-2-22,30.3,25.3,20.9,26.3,22.2,16.0,91,88,81,30.15,29.82,10,1,10,0.14
2013-2-23,30.6,25.9,22.5,25.2,22.4,19.9,92,87,78,29.93,29.81,11,3,11,0.15
2013-2-24,36.9,28.5,23.8,25.7,22.8,20.7,88,79,61,30.10,29.93,9,2,9,0.00
2013-2-25,33.2,28.6,21.2,28.9,24.7,17.8,92,85,81,30.12,30.04,7,1,7,0.00
2013-2-26,38.2,32.9,28.2,28.7,26.8,24.3,92,78,67,30.07,29.82,10,2,11,0.00
2013-2-27,36.1,32.7,30.8,28.4,26.6,24.6,85,78,71,29.94,29.79,19,4,19,0.00
2013-2-28,32.3,28.8,23.3,27.0,22.2,16.6,85,76,67,30.22,29.94,15,3,15,0.00